Location: Newark
(47.3150°N, 5.1150°E)
Time: 03:03:00
(UTC+00:00)

ISS - Pass Details

Date: 27 October 2019
Orbit: 412 x 421 km, 51.6° (Epoch: 13 November)

Event Time Altitude Azimuth Distance (km) Brightness Sun altitude
Exits shadow 05:29:42 - 242° (WSW) 1,812 -1.0 -8.3°
Reaches altitude 10° 05:30:27 10° 242° (WSW) 1,503 -1.4 -8.1°
Maximum altitude 05:33:50 84° 152° (SSE) 428 -3.7 -7.6°
Drops below altitude 10° 05:37:13 10° 66° (ENE) 1,506 0.0 -7.0°
Sets 05:39:19 0° 66° (ENE) 2,371 1.1 -6.6°
